{"data":{"norad_id":60273,"epoch":"2026-05-25T03:53:36.140640Z","epoch_age_seconds":67877,"freshness":"FRESH","line1":"1 60273U 24131U   26145.16222385  .00001143  00000+0  50723-4 0  9995","line2":"2 60273  53.1612  57.4637 0001318  84.0076 276.1075 15.30196232103428","mean_motion":15.30196232,"eccentricity":0.0001318,"inclination_deg":53.1612,"raan_deg":57.4637,"arg_perigee_deg":84.0076,"mean_anomaly_deg":276.1075,"bstar":5.0723e-5,"rev_number":10342,"period_min":94.105577434202,"perigee_km":474.32304672565,"apogee_km":476.1295932968,"semimajor_km":6853.3633200112,"source":"CELESTRAK","updated_at":"2026-05-25T13:38:19.202239Z"}}